Torna al catalogo

SL-8 DEB

AttivoLEO
NORAD 27745·DEBRIS·🇷🇺 Russia

Lanciato Feb 12, 1991 da Plesetsk Cosmodrome

Loading…

Prossimi Passaggi (prossime 24 ore)

TLE

AggiornatoSource: Space-Track

Epoca: Sep 13, 2026, 15:11 UTC

1 27745U 91009DA  26256.63278663  .00000037  00000-0  43019-3 0  9996
2 27745  73.9265 341.0360 0144242 277.7840 193.5914 12.30837775359112

Traccia SL-8 DEB in tempo reale con AllMySat

Download on the App Store